North Myrtle Beach, SC

4:31 AM EST on November 20, 2019 (GMT -0500)
Grand Strand

Weather History for KCRE - August, 2019

Change the Weather History Date:

Tuesday, August 13, 2019

  Actual Average Record
Temperature  
Mean Temperature 81 °F 79 °F  
Max Temperature 89 °F 86 °F 98 °F (1995)
Min Temperature 73 °F 72 °F 61 °F (1967)
Degree Days  
Heating Degree Days 0 0  
Month to date heating degree days 0 0  
Since 1 June heating degree days 0 0  
Since 1 July heating degree days 0 0  
Cooling Degree Days 16 14  
Month to date cooling degree days 214 187  
Year to date cooling degree days 1506 1232  
Since 1 June cooling degree days 1113 1020  
Growing Degree Days 30 (Base 50)    
Moisture  
Dew Point 76 °F    
Average Humidity 82    
Maximum Humidity 100    
Minimum Humidity 63    
Precipitation  
Precipitation 0.00 in 0.21 in 2.83 in (2008)
Month to date precipitation 1.95 2.69  
Year to date precipitation 24.96 30.63  
Sea Level Pressure  
Sea Level Pressure 29.92 in    
Wind  
Wind Speed 8 mph (South)    
Max Wind Speed 17 mph    
Max Gust Speed 21 mph    
Visibility 10 miles    
Events      
T = Trace of Precipitation, MM = Missing Value Source: NWS Daily Summary

Daily Weather History Graph

Daily Weather History Graph

Search for Another Location

Airport or City:

Astronomy

Aug. 13, 2019 Rise Set
Actual Time 6:35 AM EDT 8:03 PM EDT
Civil Twilight 6:08 AM EDT 8:30 PM EDT
Nautical Twilight 5:36 AM EDT 9:01 PM EDT
Astronomical Twilight 5:03 AM EDT 9:35 PM EDT
Moon 7:12 PM EDT (8/13) 4:41 AM EDT (8/13)
Length of Visible Light 14h 21m
Length of Day
13h 28m
Waxing Gibbous, 97% of the Moon is Illuminated
Aug 13
Waxing Gibbous
Aug 15
Full
Aug 23
Last Quarter
Aug 30
New
Sep 5
First Quarter

Hourly Weather History & Observations

Time (EDT) Temp. Heat Index Dew Point Humidity Pressure Visibility Wind Dir Wind Speed Gust Speed Precip Events Conditions
12:53 AM 82.0 °F 89.4 °F 75.9 °F 82% 29.96 in 10.0 mi SE 3.5 mph - N/A   Partly Cloudy
1:51 AM 78.8 °F - 75.2 °F 89% 29.94 in 10.0 mi Calm Calm - N/A   Mostly Cloudy
1:53 AM 78.1 °F - 75.9 °F 93% 29.94 in 10.0 mi Calm Calm - N/A   Mostly Cloudy
2:00 AM 78.1 °F - 75.9 °F 93% 29.93 in 10.0 mi Calm Calm - N/A   Scattered Clouds
2:53 AM 75.9 °F - 75.0 °F 97% 29.93 in 10.0 mi Calm Calm - N/A   Clear
3:53 AM 75.0 °F - 73.9 °F 96% 29.91 in 7.0 mi Calm Calm - N/A   Partly Cloudy
4:53 AM 73.9 °F - 73.0 °F 97% 29.91 in 8.0 mi Calm Calm - N/A   Clear
5:53 AM 73.9 °F - 73.9 °F 100% 29.93 in 9.0 mi Calm Calm - N/A   Clear
6:53 AM 73.9 °F - 73.0 °F 97% 29.93 in 7.0 mi Calm Calm - N/A   Partly Cloudy
7:53 AM 78.1 °F - 75.9 °F 93% 29.94 in 10.0 mi Calm Calm - N/A   Clear
8:53 AM 82.0 °F 90.2 °F 77.0 °F 85% 29.95 in 10.0 mi NW 3.5 mph - N/A   Clear
9:53 AM 84.0 °F 92.6 °F 75.9 °F 76% 29.95 in 10.0 mi SSW 3.5 mph - N/A   Clear
10:53 AM 86.0 °F 96.9 °F 77.0 °F 74% 29.94 in 10.0 mi SSE 4.6 mph - N/A   Clear
11:53 AM 86.0 °F 98.3 °F 78.1 °F 77% 29.95 in 10.0 mi South 10.4 mph - N/A   Clear
12:53 PM 86.0 °F 98.3 °F 78.1 °F 77% 29.94 in 10.0 mi SSE 9.2 mph - N/A   Clear
1:53 PM 87.1 °F 96.3 °F 75.0 °F 67% 29.93 in 10.0 mi South 9.2 mph - N/A   Clear
2:53 PM 87.1 °F 97.3 °F 75.9 °F 69% 29.91 in 10.0 mi South 12.7 mph - N/A   Clear
4:53 PM 88.0 °F 96.5 °F 73.9 °F 63% 29.86 in 10.0 mi South 10.4 mph - N/A   Clear
5:53 PM 87.1 °F 95.4 °F 73.9 °F 65% 29.86 in 10.0 mi South 11.5 mph - N/A   Clear
6:53 PM 86.0 °F 95.1 °F 75.0 °F 70% 29.87 in 10.0 mi South 12.7 mph - N/A   Clear
7:53 PM 84.9 °F 93.3 °F 75.0 °F 72% 29.87 in 10.0 mi South 13.8 mph - N/A   Clear
8:53 PM 84.0 °F 92.6 °F 75.9 °F 76% 29.89 in 10.0 mi South 12.7 mph - N/A   Clear
9:53 PM 84.0 °F 93.7 °F 77.0 °F 79% 29.90 in 10.0 mi SSW 15.0 mph - N/A   Clear
10:53 PM 84.0 °F 93.7 °F 77.0 °F 79% 29.89 in 10.0 mi SSW 15.0 mph - N/A   Clear
11:53 PM 84.0 °F 93.7 °F 77.0 °F 79% 29.89 in 10.0 mi SSW 12.7 mph - N/A   Clear